FW3916 Weather Reports


time (UTC)temp
C
wind
direction
speed
KPH
gust
KPH
rain 1hr
cm
rain 24hr
cm
rain mn
cm
humidity
%
barometer
mb
20260905173116 32 172 1.6 11.3 0.00 0.00 0.00 49 1013.6
20260905172543 32 203 1.6 11.3 0.00 0.00 0.00 51 1013.7
20260905172043 32 239 4.8 11.3 0.00 0.00 0.00 50 1013.7
20260905171624 32 267 4.8 9.7 0.00 0.00 0.00 50 1013.7
20260905171043 32 127 3.2 9.7 0.00 0.00 0.00 51 1013.9
20260905170544 32 214 1.6 11.3 0.00 0.00 0.00 50 1013.9
20260905165544 31 358 1.6 11.3 0.00 0.00 0.00 50 1014.3
20260905165043 31 0 3.2 9.7 0.00 0.00 0.00 52 1014.4
20260905164555 31 193 1.6 8.0 0.00 0.00 0.00 51 1014.6
20260905164044 31 96 3.2 16.1 0.00 0.00 0.00 50 1014.5
20260905163546 31 335 1.6 16.1 0.00 0.00 0.00 50 1014.5
20260905163102 31 17 6.4 16.1 0.00 0.00 0.00 51 1014.5
20260905162543 31 199 6.4 9.7 0.00 0.00 0.00 51 1014.4
20260905162043 31 153 1.6 8.0 0.00 0.00 0.00 51 1014.2
20260905161551 31 212 3.2 8.0 0.00 0.00 0.00 51 1014.3
20260905161045 30 138 3.2 9.7 0.00 0.00 0.00 52 1014.2
20260905160546 30 0 1.6 9.7 0.00 0.00 0.00 54 1014.2
20260905155544 30 212 1.6 9.7 0.00 0.00 0.00 52 1014.4
20260905155043 30 342 3.2 12.9 0.00 0.00 0.00 52 1014.9
20260905154614 29 1 3.2 12.9 0.00 0.00 0.00 53 1015.0
20260905154043 29 257 3.2 11.3 0.00 0.00 0.00 53 1015.1
20260905153545 29 258 1.6 9.7 0.00 0.00 0.00 55 1014.9
20260905153052 29 243 3.2 9.7 0.00 0.00 0.00 54 1014.9
20260905152543 29 15 3.2 9.7 0.00 0.00 0.00 54 1014.9
20260905152047 29 274 3.2 6.4 0.00 0.00 0.00 55 1014.9
20260905151605 28 340 1.6 12.9 0.00 0.00 0.00 55 1014.8
20260905151043 28 88 3.2 12.9 0.00 0.00 0.00 55 1014.9
20260905150542 28 210 4.8 12.9 0.00 0.00 0.00 53 1014.9
20260905150054 28 155 3.2 8.0 0.00 0.00 0.00 57 1014.7
20260905145543 28 98 1.6 9.7 0.00 0.00 0.00 58 1014.7
20260905145042 28 144 1.6 9.7 0.00 0.00 0.00 60 1014.8
20260905144603 28 204 3.2 12.9 0.00 0.00 0.00 60 1014.9
20260905144044 28 0 3.2 12.9 0.00 0.00 0.00 60 1015.0
20260905143544 28 195 1.6 9.7 0.00 0.00 0.00 59 1015.2
20260905143054 27 17 3.2 8.0 0.00 0.00 0.00 60 1015.3
20260905142542 27 34 3.2 14.5 0.00 0.00 0.00 61 1015.4
20260905142128 27 288 3.2 14.5 0.00 0.00 0.00 61 1015.2
20260905141603 27 293 3.2 12.9 0.00 0.00 0.00 62 1015.2
20260905141044 27 120 4.8 12.9 0.00 0.00 0.00 61 1015.1
20260905140545 27 219 3.2 9.7 0.00 0.00 0.00 63 1015.2
20260905140105 27 314 3.2 9.7 0.00 0.00 0.00 63 1015.4
20260905135545 27 25 3.2 12.9 0.00 0.00 0.00 64 1015.4
20260905135042 26 275 3.2 12.9 0.00 0.00 0.00 65 1015.3
20260905134601 26 191 3.2 12.9 0.00 0.00 0.00 67 1015.4
20260905134044 26 274 3.2 12.9 0.00 0.00 0.00 70 1015.5
20260905133546 26 269 3.2 11.3 0.00 0.00 0.00 72 1015.3
20260905133056 25 189 1.6 16.1 0.00 0.00 0.00 74 1015.3
20260905132544 25 321 4.8 16.1 0.00 0.00 0.00 76 1015.2
20260905132044 25 7 3.2 9.7 0.00 0.00 0.00 77 1015.3
20260905131610 25 94 1.6 11.3 0.00 0.00 0.00 78 1015.4
20260905131046 25 39 1.6 16.1 0.00 0.00 0.00 79 1015.4
20260905130544 25 33 4.8 16.1 0.00 0.00 0.00 79 1015.3
20260905125543 25 0 0.0 0.0 0.00 0.00 0.00 85 1015.3
20260905125043 24 0 0.0 0.0 0.00 0.00 0.00 90 1015.3
20260905124601 24 0 0.0 0.0 0.00 0.00 0.00 94 1015.3
20260905124042 23 0 0.0 0.0 0.00 0.00 0.00 96 1015.2
20260905123543 23 0 0.0 0.0 0.00 0.00 0.00 97 1015.0
20260905123101 23 0 0.0 0.0 0.00 0.00 0.00 98 1015.1
20260905122544 23 0 0.0 0.0 0.00 0.00 0.00 98 1015.1
20260905122043 23 0 0.0 0.0 0.00 0.00 0.00 98 1015.0
20260905121600 23 0 0.0 0.0 0.00 0.00 0.00 98 1014.3
20260905121043 22 0 0.0 0.0 0.00 0.00 0.00 98 1014.1
20260905120543 22 0 0.0 0.0 0.00 0.00 0.00 98 1014.1
20260905120104 22 0 0.0 0.0 0.00 0.00 0.00 98 1014.2
20260905115546 22 0 0.0 0.0 0.00 0.00 0.00 98 1014.1
20260905115043 22 0 0.0 0.0 0.00 0.00 0.00 98 1013.9
20260905114602 22 0 0.0 0.0 0.00 0.00 0.00 97 1014.0
20260905114043 22 0 0.0 0.0 0.00 0.00 0.00 97 1013.9
20260905113543 22 0 0.0 0.0 0.00 0.00 0.00 97 1013.9
20260905113058 22 0 0.0 0.0 0.00 0.00 0.00 97 1013.9
20260905112544 22 0 0.0 0.0 0.00 0.00 0.00 97 1013.7
20260905112043 22 0 0.0 0.0 0.00 0.00 0.00 97 1013.7
20260905111642 22 0 0.0 0.0 0.00 0.00 0.00 97 1013.6
20260905111044 23 0 0.0 0.0 0.00 0.00 0.00 97 1013.5
20260905110541 23 0 0.0 0.0 0.00 0.00 0.00 97 1013.4
20260905110051 23 0 0.0 0.0 0.00 0.00 0.00 97 1013.4
20260905105544 23 0 0.0 0.0 0.00 0.00 0.00 97 1013.4
20260905105044 23 0 0.0 0.0 0.00 0.00 0.00 97 1013.5
20260905104605 23 0 0.0 0.0 0.00 0.00 0.00 97 1013.6
20260905104046 23 0 0.0 0.0 0.00 0.00 0.00 97 1013.6
20260905103543 23 0 0.0 0.0 0.00 0.00 0.00 97 1013.6
20260905103105 23 0 0.0 0.0 0.00 0.00 0.00 97 1013.7
20260905102546 23 0 0.0 0.0 0.00 0.00 0.00 97 1013.7
20260905102044 23 0 0.0 0.0 0.00 0.00 0.00 97 1013.7
20260905101606 23 0 0.0 0.0 0.00 0.00 0.00 97 1013.7
20260905101043 23 0 0.0 0.0 0.00 0.00 0.00 97 1013.7
20260905100544 23 0 0.0 0.0 0.00 0.00 0.00 97 1013.7
20260905100100 23 0 0.0 0.0 0.00 0.00 0.00 97 1013.6
20260905095543 23 0 0.0 0.0 0.00 0.00 0.00 97 1013.6
20260905095043 23 0 0.0 0.0 0.00 0.00 0.00 97 1013.6
20260905094607 23 0 0.0 0.0 0.00 0.00 0.00 97 1013.5
20260905094044 23 0 0.0 0.0 0.00 0.00 0.00 97 1013.5
20260905093545 23 0 0.0 0.0 0.00 0.00 0.00 97 1013.4
20260905093107 23 0 0.0 0.0 0.00 0.00 0.00 97 1013.5
20260905092545 23 0 0.0 0.0 0.00 0.00 0.00 97 1013.5
20260905092044 23 0 0.0 0.0 0.00 0.00 0.00 96 1013.4
20260905091559 23 0 0.0 0.0 0.00 0.00 0.00 96 1013.4
20260905091044 23 0 0.0 0.0 0.00 0.00 0.00 96 1013.4
20260905090547 23 0 0.0 0.0 0.00 0.00 0.00 96 1013.4
20260905090105 23 0 0.0 0.0 0.00 0.00 0.00 96 1013.3
20260905085546 23 0 0.0 0.0 0.00 0.00 0.00 96 1013.2
20260905085044 23 0 0.0 0.0 0.00 0.00 0.00 96 1013.2
20260905084559 23 0 0.0 0.0 0.00 0.00 0.00 96 1013.1
20260905084044 23 0 0.0 0.0 0.00 0.00 0.00 96 1013.1
20260905083548 23 0 0.0 0.0 0.00 0.00 0.00 96 1013.0
20260905083103 23 0 0.0 0.0 0.00 0.00 0.00 96 1013.0
20260905082544 23 0 0.0 0.0 0.00 0.00 0.00 96 1012.9
20260905082043 23 0 0.0 0.0 0.00 0.00 0.00 96 1012.9
20260905081601 23 0 0.0 0.0 0.00 0.00 0.00 96 1012.9
20260905081043 23 0 0.0 0.0 0.00 0.00 0.00 96 1012.9
20260905080545 23 0 0.0 0.0 0.00 0.00 0.00 96 1012.9
20260905080129 23 0 0.0 0.0 0.00 0.00 0.00 96 1013.0
20260905075544 23 0 0.0 0.0 0.00 0.00 0.00 95 1012.9
20260905075045 23 0 0.0 0.0 0.00 0.00 0.00 95 1012.9
20260905074554 23 0 0.0 0.0 0.00 0.00 0.00 95 1012.9
20260905074043 23 0 0.0 0.0 0.00 0.00 0.00 95 1012.9
20260905073542 24 0 0.0 0.0 0.00 0.00 0.00 95 1012.8
20260905073056 24 0 0.0 0.0 0.00 0.00 0.00 95 1012.8
20260905072541 24 0 0.0 0.0 0.00 0.00 0.00 95 1012.8
20260905072040 24 0 0.0 0.0 0.00 0.00 0.00 95 1012.8
20260905071600 24 0 0.0 0.0 0.00 0.00 0.00 95 1012.9
20260905071042 24 0 0.0 0.0 0.00 0.00 0.00 94 1013.0
20260905070545 24 0 0.0 0.0 0.00 0.00 0.00 94 1013.1
20260905070101 24 0 0.0 0.0 0.00 0.00 0.00 94 1013.3
20260905065543 24 0 0.0 0.0 0.00 0.00 0.00 94 1013.3
20260905065043 24 0 0.0 0.0 0.00 0.00 0.00 94 1013.5
20260905064557 24 0 0.0 0.0 0.00 0.00 0.00 94 1013.5
20260905064044 24 0 0.0 0.0 0.00 0.00 0.00 94 1013.5
20260905063543 24 0 0.0 0.0 0.00 0.00 0.00 94 1013.6
20260905063103 24 0 0.0 0.0 0.00 0.00 0.00 94 1013.6
20260905062543 24 0 0.0 0.0 0.00 0.00 0.00 94 1013.7
20260905062043 24 0 0.0 0.0 0.00 0.00 0.00 93 1013.6
20260905061604 24 0 0.0 0.0 0.00 0.00 0.00 93 1013.7
20260905061040 24 0 0.0 0.0 0.00 0.00 0.00 93 1013.8
20260905060544 25 0 0.0 0.0 0.00 0.00 0.00 93 1013.8
20260905060058 25 0 0.0 0.0 0.00 0.00 0.00 93 1013.8
20260905055545 25 0 0.0 0.0 0.00 0.00 0.00 93 1013.8
20260905055045 25 0 0.0 0.0 0.00 0.00 0.00 93 1013.8
20260905054555 25 0 0.0 0.0 0.00 0.00 0.00 93 1013.9
20260905054042 25 0 0.0 0.0 0.00 0.00 0.00 92 1013.9
20260905053543 25 0 0.0 0.0 0.00 0.00 0.00 92 1014.0
20260905053111 25 0 0.0 0.0 0.00 0.00 0.00 92 1014.0
20260905052543 25 0 0.0 0.0 0.00 0.00 0.00 92 1013.9
20260905052043 25 0 0.0 0.0 0.00 0.00 0.00 92 1013.9
20260905051552 25 0 0.0 0.0 0.00 0.00 0.00 92 1013.9
20260905051040 25 0 0.0 0.0 0.00 0.00 0.00 92 1014.0
20260905050543 25 0 0.0 0.0 0.00 0.00 0.00 92 1014.0
20260905045539 25 0 0.0 0.0 0.00 0.00 0.00 92 1014.2
20260905045043 25 0 0.0 0.0 0.00 0.00 0.00 92 1014.2
20260905044555 25 0 0.0 0.0 0.00 0.00 0.00 92 1014.2
20260905044043 25 0 0.0 0.0 0.00 0.00 0.00 92 1014.3
20260905043548 25 0 0.0 0.0 0.00 0.00 0.00 92 1014.3
20260905043102 25 0 0.0 0.0 0.00 0.00 0.00 92 1014.2
20260905042545 25 0 0.0 0.0 0.00 0.00 0.00 92 1014.2
20260905042044 25 0 0.0 0.0 0.00 0.00 0.00 91 1014.2
20260905041606 25 0 0.0 0.0 0.00 0.00 0.00 91 1014.2
20260905041043 25 0 0.0 0.0 0.00 0.00 0.00 91 1014.1
20260905040545 25 0 0.0 0.0 0.00 0.00 0.00 91 1014.2
20260905040105 25 0 0.0 0.0 0.00 0.00 0.00 91 1014.2
20260905035547 25 0 0.0 0.0 0.00 0.00 0.00 91 1014.1
20260905035048 25 0 0.0 0.0 0.00 0.00 0.00 91 1014.1
20260905034619 25 0 0.0 0.0 0.00 0.00 0.00 90 1014.2
20260905034046 26 0 0.0 0.0 0.00 0.00 0.00 90 1014.2
20260905033545 26 0 0.0 0.0 0.00 0.00 0.00 90 1014.2
20260905033113 26 0 0.0 0.0 0.00 0.00 0.00 89 1014.2
20260905032542 26 0 0.0 0.0 0.00 0.00 0.00 89 1014.1
20260905032046 26 0 0.0 0.0 0.00 0.00 0.00 89 1014.1
20260905031614 26 0 0.0 0.0 0.00 0.00 0.00 89 1014.3
20260905031043 26 0 0.0 0.0 0.00 0.00 0.00 89 1014.2
20260905030543 26 0 0.0 0.0 0.00 0.00 0.00 88 1014.4
20260905030100 26 0 0.0 0.0 0.00 0.00 0.00 88 1014.2
20260905025541 26 0 0.0 0.0 0.00 0.00 0.00 88 1014.1
20260905025042 26 0 0.0 0.0 0.00 0.00 0.00 88 1014.2
20260905024553 26 0 0.0 0.0 0.00 0.00 0.00 87 1014.1
20260905024043 26 0 0.0 0.0 0.00 0.00 0.00 87 1014.2
20260905023544 26 0 0.0 0.0 0.00 0.00 0.00 86 1014.1
20260905023127 26 0 0.0 0.0 0.00 0.00 0.00 85 1014.2
20260905022544 27 0 0.0 0.0 0.00 0.00 0.00 85 1014.3
20260905022046 27 0 0.0 0.0 0.00 0.00 0.00 84 1014.1
20260905021605 27 0 0.0 0.0 0.00 0.00 0.00 84 1014.1
20260905021042 27 0 0.0 0.0 0.00 0.00 0.00 84 1014.2
20260905020545 27 0 0.0 0.0 0.00 0.00 0.00 83 1014.1
20260905015545 27 0 0.0 0.0 0.00 0.00 0.00 82 1014.1
20260905015045 27 0 0.0 0.0 0.00 0.00 0.00 81 1014.1
20260905014556 27 0 0.0 0.0 0.00 0.00 0.00 79 1014.0
20260905014045 28 0 0.0 0.0 0.00 0.00 0.00 79 1013.9
20260905013545 28 0 0.0 0.0 0.00 0.00 0.00 79 1013.8
20260905013111 28 0 0.0 0.0 0.00 0.00 0.00 78 1013.7
20260905012545 28 0 0.0 0.0 0.00 0.00 0.00 77 1013.6
20260905012044 28 0 0.0 0.0 0.00 0.00 0.00 76 1013.6
20260905011606 28 0 0.0 0.0 0.00 0.00 0.00 76 1013.5
20260905011044 28 0 0.0 0.0 0.00 0.00 0.00 74 1013.5
20260905010546 29 0 0.0 0.0 0.00 0.00 0.00 73 1013.6
20260905010112 29 0 0.0 0.0 0.00 0.00 0.00 72 1013.6
20260905005543 29 0 0.0 0.0 0.00 0.00 0.00 71 1013.6
20260905005045 30 0 0.0 0.0 0.00 0.00 0.00 70 1013.4
20260905004633 30 0 0.0 0.0 0.00 0.00 0.00 69 1013.4
20260905004044 30 0 0.0 0.0 0.00 0.00 0.00 68 1013.3
20260905003544 30 0 0.0 0.0 0.00 0.00 0.00 66 1013.4
20260905003122 31 0 0.0 0.0 0.00 0.00 0.00 64 1013.4
20260905002544 31 0 0.0 0.0 0.00 0.00 0.00 63 1013.3
20260905002043 31 0 0.0 0.0 0.00 0.00 0.00 61 1013.4
20260905001603 31 0 0.0 0.0 0.00 0.00 0.00 59 1013.2
20260905001043 32 0 0.0 0.0 0.00 0.00 0.00 58 1013.3
20260905000542 32 0 0.0 0.0 0.00 0.00 0.00 57 1013.2
20260905000123 32 0 0.0 0.0 0.00 0.00 0.00 55 1013.1
20260904235542 32 0 0.0 0.0 0.00 0.00 0.00 54 1013.1
20260904235042 32 0 0.0 0.0 0.00 0.00 0.00 52 1013.2
20260904234607 33 0 0.0 0.0 0.00 0.00 0.00 51 1013.1
20260904234044 33 0 0.0 0.0 0.00 0.00 0.00 50 1013.1
20260904233546 33 0 0.0 0.0 0.00 0.00 0.00 49 1013.2
20260904233105 33 0 0.0 0.0 0.00 0.00 0.00 48 1013.1
20260904232544 33 0 0.0 0.0 0.00 0.00 0.00 47 1013.2
20260904232046 33 0 0.0 0.0 0.00 0.00 0.00 47 1013.1
20260904231604 33 0 0.0 0.0 0.00 0.00 0.00 47 1012.9
20260904231043 34 0 0.0 0.0 0.00 0.00 0.00 46 1013.0
20260904230543 34 0 0.0 0.0 0.00 0.00 0.00 46 1013.1
20260904230114 35 0 0.0 0.0 0.00 0.00 0.00 44 1013.1
20260904225542 35 0 0.0 0.0 0.00 0.00 0.00 43 1013.1
20260904225044 35 0 0.0 0.0 0.00 0.00 0.00 42 1013.2
20260904224555 35 0 0.0 0.0 0.00 0.00 0.00 42 1013.2
20260904224044 35 0 0.0 0.0 0.00 0.00 0.00 42 1013.3
20260904223544 36 0 0.0 0.0 0.00 0.00 0.00 42 1013.2
20260904223107 36 0 0.0 0.0 0.00 0.00 0.00 41 1013.2
20260904222546 36 0 0.0 0.0 0.00 0.00 0.00 39 1013.3
20260904222043 36 0 0.0 0.0 0.00 0.00 0.00 39 1013.1
20260904221553 36 0 0.0 0.0 0.00 0.00 0.00 39 1013.1
20260904221045 36 0 0.0 0.0 0.00 0.00 0.00 41 1013.1
20260904220544 36 0 0.0 0.0 0.00 0.00 0.00 38 1013.0
20260904220107 36 0 0.0 0.0 0.00 0.00 0.00 41 1013.1
20260904215543 36 0 0.0 0.0 0.00 0.00 0.00 38 1013.2
20260904215042 36 0 0.0 0.0 0.00 0.00 0.00 38 1013.2
20260904214607 36 0 0.0 0.0 0.00 0.00 0.00 38 1013.3
20260904214042 36 0 0.0 0.0 0.00 0.00 0.00 40 1013.4
20260904213544 37 0 0.0 6.4 0.00 0.00 0.00 36 1013.5
20260904213108 37 0 0.0 6.4 0.00 0.00 0.00 39 1013.5
20260904212545 37 0 0.0 0.0 0.00 0.00 0.00 39 1013.4
20260904212042 37 0 0.0 0.0 0.00 0.00 0.00 39 1013.5
20260904211603 37 0 0.0 0.0 0.00 0.00 0.00 37 1013.7
20260904211043 37 0 0.0 0.0 0.00 0.00 0.00 39 1013.7
20260904210542 37 0 0.0 0.0 0.00 0.00 0.00 38 1013.7
20260904210052 37 0 0.0 0.0 0.00 0.00 0.00 39 1013.8
20260904205544 37 0 0.0 4.8 0.00 0.00 0.00 40 1013.8
20260904205044 37 0 0.0 4.8 0.00 0.00 0.00 38 1013.8
20260904204601 37 0 1.6 4.8 0.00 0.00 0.00 41 1013.8
20260904204045 37 274 0.0 4.8 0.00 0.00 0.00 39 1013.9
20260904203543 37 0 0.0 6.4 0.00 0.00 0.00 38 1013.9
20260904203057 37 0 0.0 6.4 0.00 0.00 0.00 37 1014.0
20260904202544 37 45 0.0 4.8 0.00 0.00 0.00 41 1014.1
20260904202046 37 0 0.0 4.8 0.00 0.00 0.00 39 1014.1
20260904201607 37 0 0.0 4.8 0.00 0.00 0.00 40 1014.1
20260904201042 37 0 0.0 4.8 0.00 0.00 0.00 39 1014.2
20260904200542 37 0 0.0 4.8 0.00 0.00 0.00 39 1014.3
20260904200107 37 0 0.0 4.8 0.00 0.00 0.00 38 1014.3
20260904195542 37 0 0.0 4.8 0.00 0.00 0.00 40 1014.4
20260904195047 37 201 0.0 6.4 0.00 0.00 0.00 41 1014.5
20260904194603 36 0 0.0 6.4 0.00 0.00 0.00 40 1014.6
20260904194046 37 236 0.0 6.4 0.00 0.00 0.00 39 1014.7
20260904193542 36 236 0.0 6.4 0.00 0.00 0.00 39 1014.7
20260904193056 37 270 1.6 6.4 0.00 0.00 0.00 38 1015.0
20260904192541 37 0 0.0 6.4 0.00 0.00 0.00 42 1015.1
20260904192121 37 265 0.0 8.0 0.00 0.00 0.00 42 1015.1
20260904191552 36 28 1.6 8.0 0.00 0.00 0.00 42 1015.1
20260904191045 36 310 1.6 8.0 0.00 0.00 0.00 41 1015.2
20260904190546 36 0 0.0 0.0 0.00 0.00 0.00 41 1015.2
20260904185544 37 0 0.0 0.0 0.00 0.00 0.00 41 1015.5
20260904185046 37 0 0.0 0.0 0.00 0.00 0.00 44 1015.5
20260904184604 36 0 0.0 0.0 0.00 0.00 0.00 45 1015.5
20260904184042 36 0 0.0 0.0 0.00 0.00 0.00 43 1015.6
20260904183544 36 0 0.0 0.0 0.00 0.00 0.00 41 1015.6
20260904183117 36 0 0.0 0.0 0.00 0.00 0.00 40 1015.6
20260904182544 36 0 0.0 0.0 0.00 0.00 0.00 38 1015.7
20260904182043 36 0 0.0 0.0 0.00 0.00 0.00 43 1015.8
20260904181604 36 0 0.0 0.0 0.00 0.00 0.00 44 1015.8
20260904181043 36 0 0.0 0.0 0.00 0.00 0.00 45 1015.8
20260904180543 36 0 0.0 0.0 0.00 0.00 0.00 41 1015.9
20260904180100 36 0 0.0 0.0 0.00 0.00 0.00 46 1016.0
20260904175543 36 0 0.0 0.0 0.00 0.00 0.00 43 1016.2
20260904175044 36 0 0.0 0.0 0.00 0.00 0.00 42 1016.1
20260904174553 36 0 0.0 0.0 0.00 0.00 0.00 43 1016.2
20260904174042 35 0 0.0 0.0 0.00 0.00 0.00 45 1016.3
20260904173543 35 0 0.0 0.0 0.00 0.00 0.00 45 1016.3